GRBBeta
1 60237U 24128C   26111.86460525  .00003374  00000-0  23825-3 0  9992
2 60237  61.9909  53.8027 0047509 122.7273 237.8413 15.06176035 97781
Curium One
1 60242U 24128H   26111.82678219  .00006993  00000-0  41181-3 0  9990
2 60242  61.9801  45.2527 0047188 119.2068 241.3759 15.11593354 97937
ROBUSTA-3A
1 60243U 24128J   26111.82695308  .00007338  00000-0  44084-3 0  9998
2 60243  61.9877  47.4176 0048140 116.7183 243.8851 15.10777156 97904
CatSat
1 60246U 24125J   26111.85336536  .00042962  00000-0  68211-3 0  9996
2 60246  97.2150 323.8616 0024573  35.0218 325.2645 15.52881570 98638
HYPERVIEW-1G (RS66S)
1 61772U 24199AP  26111.82813323  .00077666  00000-0  80487-3 0  9991
2 61772  97.2985 349.2081 0009478 118.2622 241.9595 15.64386577125838
AO-123
1 61781U 24199AY  26111.85088383  .00006947  00000-0  20734-3 0  9997
2 61781  97.3076 341.0398 0015125 145.3368 214.8864 15.34830277125280
JINJUSat 1B
1 63210U 25052A   26111.66921845  .00014625  00000-0  47949-3 0  9992
2 63210  97.4059   8.4077 0001344 313.1022  47.0107 15.31731160 61440
NUSHSAT 1
1 63211U 25052B   26111.66510690  .00018133  00000-0  55701-3 0  9998
2 63211  97.4036   8.7939 0001254 329.8249  30.2921 15.33769216 61477
TEVEL2-4
1 63213U 25052D   26111.67690137  .00016208  00000-0  51644-3 0  9999
2 63213  97.3960   8.0433 0001611   9.9911 350.1363 15.32623959 61459
TEVEL2-5
1 63214U 25052E   26111.43040099  .00018132  00000-0  58000-3 0  9991
2 63214  97.3955   7.7598 0001662  10.9806 349.1472 15.32474009 61418
TEVEL2-6
1 63215U 25052F   26111.44134688  .00018459  00000-0  59112-3 0  9998
2 63215  97.3963   7.7560 0001700   6.9742 353.1523 15.32434633 61415
TEVEL2-1
1 63217U 25052H   26111.64793656  .00015721  00000-0  51128-3 0  9996
2 63217  97.3933   7.6502 0002324  17.7173 342.4149 15.31971232 61437
TEVEL2-3
1 63218U 25052J   26111.64439674  .00015675  00000-0  50910-3 0  9990
2 63218  97.3934   7.6613 0002360  18.4506 341.6821 15.32015163 61431
TEVEL2-2
1 63219U 25052K   26111.64849304  .00015810  00000-0  51407-3 0  9999
2 63219  97.3933   7.6519 0002350  18.0370 342.0954 15.31976061 61434
TEVEL2-9
1 63237U 25052AD  26111.42505605  .00015647  00000-0  53819-3 0  9995
2 63237  97.3995   6.9201 0006047   4.6168 355.5127 15.30146314 61345
TEVEL2-7
1 63238U 25052AE  26111.65212411  .00014247  00000-0  49408-3 0  9995
2 63238  97.3998   7.0842 0006081   3.5610 356.5672 15.29899459 61372
TEVEL2-8
1 63239U 25052AF  26111.65972986  .00014495  00000-0  50291-3 0  9993
2 63239  97.3996   7.0706 0006110   4.1693 355.9598 15.29880164 61374
HYDRA-W
1 63490U 25052BL  26111.45487203  .01936819  28147-2  29346-2 0  9997
2 63490  97.3761  15.4996 0006949 172.8225 187.3157 16.05233588 61938
HADES-ICM (SO-125)
1 63492U 25052BN  26111.66992097  .00262222  00000-0  17791-2 0  9990
2 63492  97.3842  14.1814 0003046 100.8753 259.2854 15.74203149 61867
SPIRONE
1 66657U 25274H   26111.77254314  .00001415  00000-0  14040-3 0  9997
2 66657  97.7465  41.8864 0011536 194.9223 165.1658 14.93308246 21800
K-HERO
1 66660U 25274L   26111.52521675  .00001122  00000-0  11123-3 0  9995
2 66660  97.7473  41.7615 0013284 201.5187 158.5476 14.93740958 21772
SNUGLITE-III DURI
1 66661U 25274M   26111.38099138  .00001014  00000-0  10082-3 0  9997
2 66661  97.7471  41.6375 0013845 203.4025 156.6566 14.93807070 21754
SilverSat
1 66909U 98067XV  26111.41676986  .02238858  60623-2  17497-2 0  9993
2 66909  51.6081 201.2837 0013138 340.8561  19.1960 16.15331909 21972
SAKHACUBE-CHOLBON
1 67290U 25313AU  26111.44381198  .00009470  00000-0  39540-3 0  9991
2 67290  97.3948 187.2292 0009576 186.4574 173.6541 15.23818466 17334
RS95S (QMR-KWT-2)
1 67291U 25313AV  26111.47559989  .00014263  00000-0  57713-3 0  9998
2 67291  97.3946 187.3373 0009483 184.9672 175.1474 15.24769446 17340
Ten-Koh2
1 68261U 25241B   26110.35750450  .00007034  00000-0  30745-3 0  9992
2 68261  51.6448 234.7422 0005273 314.8864  45.1685 15.23140637  6094
JACK-002
1 68417U 26067B   26110.85111499  .00005429  00000-0  26526-3 0  9999
2 68417  97.4532  70.2002 0004012 104.3660 255.8020 15.18650506  3244
DISCO 2
1 68431U 26067R   26110.85761331  .00004878  00000-0  24177-3 0  9998
2 68431  97.4569  70.2023 0002707 145.0119 215.1293 15.18209162  3242
HADES-SA (SpinnyONE)
1 68446U 26067AG  26110.61168190  .00014842  00000-0  75107-3 0  9993
2 68446  97.4383  69.8724 0004564 279.0628  81.0089 15.17108811  3195
PARUS-6U1
1 68456U 26067AS  26110.80954596  .00004758  00000-0  24484-3 0  9995
2 68456  97.4518  70.1002 0003710 260.6756  99.4058 15.16898002  3231
SAL-E
1 68458U 26067AU  26110.80982959  .00006557  00000-0  33590-3 0  9998
2 68458  97.4446  70.0813 0003823 275.4930  84.5867 15.16915827  3233
IO-86
1 40931U          25360.30710720  .00000000  00000-0  12800-3 0    00
2 40931   6.0006 332.5373 0012733 338.8432   8.1437 14.79075515    01
LILIUM-4                
1 71922C 26067AC  26089.50133053 -.00014632  00000+0 -74472-3 0    04
2 71922  97.4497  49.1617 0004341   5.9603 355.7042 15.16896692    16
